Regional Weather Roundup
Issued by NWS

Home | Current Version | Previous Version | Graphics & Text | Print | Product List | Glossary Off
Versions: 1 2 3 4 5 6 7 8 9 10 11 12 13 14 15 16 17 18 19 20 21 22 23 24 25 26 27 28 29 30 31 32 33 34 35 36 37 38 39 40 41 42 43 44 45 46 47 48 49 50

000
ASUS43 KDMX 250507
RWRIA

WEATHER ROUNDUP FOR IOWA
NATIONAL WEATHER SERVICE DES MOINES IA
1200 AM CDT MON MAY 25 2015

NOTE: "FAIR" INDICATES FEW OR NO CLOUDS BELOW 12,000 FEET WITH NO
SIGNIFICANT WEATHER AND/OR OBSTRUCTIONS TO VISIBILITY.

* - THESE STATIONS ARE NOT NWS STATIONS...THUS NOT UNDER NWS
QUALITY CONTROL.  THEY ALSO DO NOT REPORT WEATHER SUCH
AS PRECIPITATION OR FOG.

IAZ001>003-012>014-020>022-031>034-043>046-250600-
   NORTHWEST IOWA

CITY           SKY/WX    TMP DP  RH WIND       PRES   REMARKS
CARROLL *      CLOUDY    61  61 100 CALM      29.77F FOG
CHEROKEE *     CLOUDY    61  61 100 SW5       29.76S
DENISON *      CLOUDY    63  63 100 CALM      29.76S FOG
LE MARS *      CLOUDY    61  61 100 SW5       29.77S
ORANGE CITY *  CLOUDY    59  59 100 W5        29.76F FOG
SHELDON *      CLOUDY    61 N/A N/A CALM      29.75S HAZE
SIOUX CITY     FOG       60  58  92 W3        29.77S VSB 1/2
SPENCER        CLOUDY    61  60  97 SW6       29.75F
STORM LAKE *   CLOUDY    61  61 100 SW6       29.77F FOG
$$

IAZ055>058-069>071-079>083-090>094-250600-
   SOUTHWEST IOWA

CITY           SKY/WX    TMP DP  RH WIND       PRES   REMARKS
ATLANTIC *     MOCLDY    64  64 100 S10       29.78F
AUDUBON *      PTCLDY    64  61  88 SW6       29.79S
CLARINDA *     CLOUDY    63  63 100 S5        29.82S
COUNCIL BLFS * MOCLDY    64  64 100 S6        29.80S
CRESTON *      MOCLDY    61  61 100 SW8       29.80S
HARLAN  *      PTCLDY    63  63 100 SW6       29.82S
LAMONI         CLOUDY    64  60  87 SW8       29.81S
RED OAK *      CLOUDY    63  63 100 S6        29.80S
SHENANDOAH *   MOCLDY    64  63  94 S8        29.81S
$$

IAZ047>049-059>061-072>074-084-250600-
   CENTRAL IOWA

CITY           SKY/WX    TMP DP  RH WIND       PRES   REMARKS
AMES           CLOUDY    64  63  96 S8        29.77F
ANKENY *       CLOUDY    64  64 100 S3        29.78S
CHARITON *     CLOUDY    64  63  94 S7        29.80S
DES MOINES     CLOUDY    65  62  90 S6        29.78S
GRINNELL*      CLOUDY    63  61  94 S9        29.80S
KNOXVILLE *    CLOUDY    63  61  94 S7        29.78F
MARSHALLTOWN   CLOUDY    64  62  93 SW9       29.78S
PELLA *        CLOUDY    64  64 100 S5        29.81S
PERRY *        CLOUDY    64  63  94 SW7       29.77S
$$

IAZ004>006-015-016-023>025-035-036-250600-
   NORTH CENTRAL IOWA

CITY           SKY/WX    TMP DP  RH WIND       PRES   REMARKS
ALGONA *       CLOUDY    63  59  88 S7        29.76S FOG
CLARION *      CLOUDY    63  63 100 S6        29.76F FOG
ESTHERVILLE    FOG       60  60 100 CALM      29.74S VSB 1/2
FORT DODGE *   CLOUDY    63  59  88 S3        29.77F
MASON CITY     CLOUDY    64  63  96 S7        29.77S FOG
FOREST CITY *  CLOUDY    61  61 100 SW6       29.75F FOG
IOWA FALLS *   DRIZZLE   64  63  94 S5        29.77F
$$

IAZ007>011-017>019-026>030-037>042-050>054-066-250600-
   NORTHEAST IOWA

CITY           SKY/WX    TMP DP  RH WIND       PRES   REMARKS
CEDAR RAPIDS   LGT RAIN  67  67 100 S10       29.79S
CHARLES CITY * CLOUDY    63  63 100 SE7       29.77F FOG
CLINTON *      CLOUDY    66  64  94 S12       29.86F
DECORAH *      CLOUDY    61  61 100 SE7       29.78S FOG
DUBUQUE        CLOUDY    67  65  93 S15       29.82F
MONTICELLO *   CLOUDY    68  68 100 S12       29.80F
OELWEIN *      CLOUDY    66  66 100 S13       29.78F
WATERLOO       CLOUDY    64  63  96 S7        29.76F
$$

IAZ064-065-067-068-078-250600-
   EAST CENTRAL IOWA

CITY           SKY/WX    TMP DP  RH WIND       PRES   REMARKS
DAVENPORT      CLOUDY    68  64  87 S12       29.84F
IOWA CITY      CLOUDY    68  66  93 S8        29.82S
MT. PLEASANT * CLOUDY    66  66 100 SE8       29.82F
MUSCATINE *    MOCLDY    68  66  94 SE10      29.82S
QUAD CITIES    CLOUDY    68  65  90 SE8       29.83F
$$

IAZ062-063-075>077-085>089-095>099-250600-
   SOUTHEAST IOWA

CITY           SKY/WX    TMP DP  RH WIND       PRES   REMARKS
BURLINGTON     LGT RAIN  67  66  97 S7        29.82F
FAIRFIELD *    CLOUDY    66  64  94 SW6       29.80F
FORT MADISON * LGT RAIN  66  64  94 SE5       29.82F
KEOKUK *       LGT RAIN  68  66  94 SE7       29.81F
OSKALOOSA *    MOCLDY    64  63  94 S6        29.81S
CENTERVILLE *  LGT RAIN  63  63 100 S7        29.82S
OTTUMWA        CLOUDY    64  64 100 S8        29.80F
WASHINGTON *   CLOUDY    68  66  94 S8        29.82F
$$

ABBREVIATIONS USED IN REMARKS
   TC - TEMPERATURES IN CELSIUS
  WCI - WIND CHILL INDEX
   HX - HEAT INDEX
  VSB - VISIBILITY
$$



USA.gov is the U.S. government's official web portal to all federal, state and local government web resources and services.